This is the latest recevied weather packets stored in our database for station/object VK2BLR. If no packets are shown the sender has not sent any weather packets the latest 1 day(s).
| Time | Temp. | Humidity | Pressure | Rain* | Wind** | Luminosity | Snow |
|---|---|---|---|---|---|---|---|
| 1778099913 | 9.44° C | 86% | 1015.4 hPa | 0 mm | - | - | - |
| 1778098114 | 10° C | 82% | 1015.2 hPa | 0 mm | - | - | - |
| 1778095413 | 9.44° C | 81% | 1015 hPa | 0 mm | - | - | - |
| 1778094514 | 9.44° C | 81% | 1015 hPa | 0 mm | - | - | - |
| 1778091814 | 9.44° C | 83% | 1015 hPa | 0 mm | - | - | - |
| 1778090913 | 8.89° C | 84% | 1015.2 hPa | 0 mm | - | - | - |
| 1778088213 | 8.33° C | 82% | 1015.3 hPa | 0 mm | - | - | - |
| 1778087313 | 8.33° C | 82% | 1015.5 hPa | 0 mm | - | - | - |
| 1778086413 | 8.33° C | 82% | 1015.7 hPa | 0 mm | - | - | - |
| 1778084613 | 8.33° C | 80% | 1016 hPa | 0 mm | - | - | - |
| 1778083714 | 8.89° C | 80% | 1016.2 hPa | 0 mm | - | - | - |
| 1778074713 | 10.56° C | 77% | 1016.8 hPa | 0 mm | - | - | - |
| 1778072013 | 11.11° C | 76% | 1017 hPa | 0 mm | - | - | - |
| 1778071114 | 11.11° C | 76% | 1017.1 hPa | 0 mm | - | - | - |
| 1778068413 | 11.67° C | 74% | 1017.4 hPa | 0 mm | - | - | - |
| 1778067514 | 11.67° C | 73% | 1017.2 hPa | 0 mm | - | - | - |
| 1778064814 | 12.22° C | 72% | 1017.3 hPa | 0 mm | - | - | - |
| 1778063913 | 12.78° C | 70% | 1017.3 hPa | 0 mm | - | - | - |
| 1778062113 | 12.78° C | 68% | 1017.3 hPa | 0 mm | - | - | - |
| 1778061213 | 12.78° C | 68% | 1017.3 hPa | 0 mm | - | - | - |
| 1778060314 | 12.78° C | 67% | 1017.1 hPa | 0 mm | - | - | - |
| 1778057613 | 13.89° C | 64% | 1017.1 hPa | 0 mm | - | - | - |
| 1778056712 | 13.89° C | 62% | 1017 hPa | 0 mm | - | - | - |
| 1778055814 | 14.44° C | 61% | 1016.9 hPa | 0 mm | - | - | - |
| 1778054913 | 15° C | 60% | 1016.8 hPa | 0 mm | - | - | - |
* Rain latest hour (hover to see other rain measurements)
** Current wind speed in m/s (hover to see current wind gust speed)